CW5920 Weather Reports


time (UTC)temp
F
wind
direction
speed
knots
gust
knots
rain 1hr
in
rain 24hr
in
rain mn
in
humidity
%
barometer
mb
20260510043016 75 113 5.2 8.7 0.00 0.00 0.00 74 1009.1
20260510042016 75 113 6.1 9.6 0.00 0.00 0.00 74 1009.0
20260510041016 75 113 5.2 8.7 0.00 0.00 0.00 73 1009.2
20260510040016 75 90 5.2 7.8 0.00 0.00 0.00 72 1009.1
20260510035036 75 113 4.3 7.0 0.00 0.00 0.00 71 1009.2
20260510034016 75 90 3.5 6.1 0.00 0.00 0.00 71 1009.3
20260510033036 75 90 4.3 7.0 0.00 0.00 0.00 70 1009.2
20260510032016 75 90 4.3 7.0 0.00 0.00 0.00 70 1009.2
20260510031016 75 90 4.3 7.0 0.00 0.00 0.00 71 1009.0
20260510030036 75 90 2.6 6.1 0.00 0.00 0.00 70 1008.9
20260510025056 76 90 2.6 5.2 0.00 0.00 0.00 70 1008.9
20260510024016 76 90 1.7 2.6 0.00 0.00 0.00 69 1008.7
20260510023016 77 90 1.7 2.6 0.00 0.00 0.00 68 1008.7
20260510022016 77 90 1.7 2.6 0.00 0.00 0.00 67 1008.6
20260510021016 77 90 1.7 2.6 0.00 0.00 0.00 67 1008.4
20260510020016 78 90 1.7 2.6 0.00 0.00 0.00 66 1008.3
20260510015016 78 90 1.7 2.6 0.00 0.00 0.00 66 1008.3
20260510014016 79 90 0.9 2.6 0.00 0.00 0.00 64 1008.1
20260510013016 79 90 1.7 3.5 0.00 0.00 0.00 63 1007.9
20260510012016 80 90 1.7 3.5 0.00 0.00 0.00 62 1007.8
20260510011016 81 90 1.7 2.6 0.00 0.00 0.00 61 1007.8
20260510010016 82 90 1.7 3.5 0.00 0.00 0.00 60 1007.8
20260510005016 83 90 1.7 3.5 0.00 0.00 0.00 59 1007.7
20260510004036 84 90 1.7 3.5 0.00 0.00 0.00 59 1007.7
20260510003036 84 90 0.9 3.5 0.00 0.00 0.00 58 1007.6
20260510002016 85 90 0.9 2.6 0.00 0.00 0.00 56 1007.7
20260510001036 85 90 1.7 3.5 0.00 0.00 0.00 56 1007.7
20260510000016 86 90 1.7 4.3 0.00 0.00 0.00 54 1007.8
20260509235016 86 90 1.7 6.1 0.00 0.00 0.00 54 1007.9
20260509234016 86 90 2.6 5.2 0.00 0.00 0.00 53 1007.8
20260509233036 87 135 0.9 3.5 0.00 0.00 0.00 52 1007.9
20260509232016 87 113 0.9 3.5 0.00 0.00 0.00 50 1007.8
20260509231016 87 113 0.9 5.2 0.00 0.00 0.00 51 1007.9
20260509230016 87 113 1.7 5.2 0.00 0.00 0.00 50 1008.0
20260509225016 88 113 3.5 6.1 0.00 0.00 0.00 50 1007.9
20260509224016 88 135 0.9 4.3 0.00 0.00 0.00 50 1007.9
20260509223016 88 113 0.9 5.2 0.00 0.00 0.00 49 1008.0
20260509222016 88 113 2.6 5.2 0.00 0.00 0.00 49 1007.9
20260509221016 89 90 0.9 5.2 0.00 0.00 0.00 49 1008.0
20260509220016 89 68 1.7 6.1 0.00 0.00 0.00 49 1008.1
20260509215016 90 90 2.6 6.1 0.00 0.00 0.00 50 1008.2
20260509214016 90 135 2.6 7.0 0.00 0.00 0.00 48 1008.2
20260509213016 90 0.0 0.9 0.00 0.00 0.00 46 1008.3
20260509212016 90 135 0.9 2.6 0.00 0.00 0.00 47 1008.5
20260509211016 90 113 0.9 4.3 0.00 0.00 0.00 46 1008.6
20260509210016 90 90 2.6 7.0 0.00 0.00 0.00 50 1008.7
20260509205016 90 0.0 1.7 0.00 0.00 0.00 47 1008.8
20260509204016 90 90 0.9 3.5 0.00 0.00 0.00 47 1009.0
20260509203016 91 0.0 0.9 0.00 0.00 0.00 46 1009.2
20260509202036 91 0.0 3.5 0.00 0.00 0.00 45 1009.3
20260509201016 91 293 0.9 7.0 0.00 0.00 0.00 46 1009.3
20260509200015 91 293 0.9 5.2 0.00 0.01 0.00 48 1009.6
20260509195015 90 293 0.9 7.8 0.00 0.04 0.00 46 1009.6
20260509194016 90 293 1.7 6.1 0.00 0.05 0.00 47 1009.7
20260509193016 90 0.0 0.9 0.00 0.05 0.00 46 1009.9
20260509192036 89 0.0 1.7 0.00 0.05 0.00 48 1010.0
20260509191016 88 0.0 4.3 0.00 0.05 0.00 50 1009.9
20260509190016 87 293 0.9 6.1 0.00 0.05 0.00 52 1010.0
20260509185015 87 270 1.7 6.1 0.00 0.05 0.00 52 1010.0
20260509184015 87 293 1.7 6.1 0.00 0.05 0.00 53 1010.1
20260509183016 87 293 2.6 7.8 0.00 0.05 0.00 52 1010.2
20260509182015 88 293 0.9 7.0 0.00 0.05 0.00 52 1010.5
20260509181015 87 293 0.9 5.2 0.00 0.05 0.00 53 1010.5
20260509180016 87 270 1.7 6.1 0.00 0.05 0.00 53 1010.7
20260509175016 86 315 1.7 7.0 0.00 0.05 0.00 54 1010.7
20260509174016 85 0.0 2.6 0.00 0.05 0.00 57 1010.8
20260509173016 85 293 3.5 9.6 0.00 0.05 0.00 54 1010.9
20260509172016 85 270 1.7 7.0 0.00 0.05 0.00 55 1011.0
20260509171016 84 0.0 5.2 0.00 0.05 0.00 58 1011.1
20260509170016 84 293 0.9 4.3 0.00 0.05 0.00 58 1011.1
20260509165016 83 270 0.9 5.2 0.00 0.05 0.00 61 1011.1
20260509164016 83 270 0.9 7.8 0.00 0.05 0.00 59 1011.2
20260509163016 83 0.0 5.2 0.00 0.05 0.00 62 1011.3
20260509162016 82 0.0 2.6 0.00 0.05 0.00 63 1011.2
20260509161016 82 270 4.3 8.7 0.00 0.05 0.00 61 1011.2
20260509160015 82 270 0.9 5.2 0.00 0.05 0.00 62 1011.3
20260509155036 81 270 0.9 5.2 0.00 0.05 0.00 64 1011.2
20260509154036 80 293 0.9 3.5 0.00 0.05 0.00 66 1011.1
20260509153016 79 293 0.9 3.5 0.00 0.05 0.00 67 1011.0
20260509152015 79 293 3.5 7.0 0.00 0.05 0.00 67 1010.9
20260509151016 78 293 1.7 7.0 0.00 0.05 0.00 67 1010.9
20260509150036 77 315 4.3 7.8 0.00 0.05 0.00 69 1010.9
20260509145016 76 293 6.1 9.6 0.00 0.05 0.00 69 1011.0
20260509144016 75 338 4.3 7.8 0.00 0.05 0.00 75 1011.0
20260509143015 74 315 5.2 9.6 0.00 0.05 0.00 78 1011.0
20260509142035 73 270 3.5 7.8 0.00 0.05 0.00 81 1011.0
20260509141015 73 293 2.6 7.0 0.00 0.05 0.00 83 1011.1
20260509140016 72 270 2.6 7.0 0.00 0.05 0.00 83 1011.1
20260509135016 71 293 1.7 7.8 0.00 0.05 0.00 83 1011.1
20260509134015 71 270 2.6 7.0 0.00 0.05 0.00 84 1011.0
20260509133036 71 0.0 0.9 0.00 0.05 0.00 84 1011.0
20260509132016 70 293 1.7 7.0 0.00 0.05 0.00 85 1010.8
20260509131015 70 0.0 0.0 0.00 0.05 0.00 86 1010.7
20260509130015 69 0.0 0.9 0.00 0.05 0.00 87 1010.7
20260509125015 68 0.0 1.7 0.00 0.05 0.00 87 1010.7
20260509124015 67 0.0 0.0 0.00 0.05 0.00 88 1010.7
20260509123015 66 0.0 0.0 0.00 0.05 0.00 87 1010.5
20260509122016 66 0.0 2.6 0.00 0.05 0.00 87 1010.5
20260509121016 66 0.0 0.0 0.00 0.05 0.00 86 1010.4
20260509120016 65 0.0 0.0 0.00 0.05 0.00 86 1010.4
20260509115035 66 0.0 0.0 0.00 0.05 0.00 84 1010.4
20260509114015 66 0.0 0.0 0.00 0.05 0.00 83 1010.1
20260509113015 67 0.0 0.0 0.00 0.05 0.00 83 1009.9
20260509112015 67 0.0 0.9 0.00 0.05 0.00 82 1009.9
20260509111015 67 0.0 0.0 0.00 0.05 0.00 83 1009.9
20260509110015 68 0.0 0.0 0.00 0.05 0.00 84 1009.9
20260509105016 68 0.0 2.6 0.00 0.05 0.00 86 1009.8
20260509104015 68 293 2.6 9.6 0.00 0.05 0.00 87 1009.7
20260509103015 70 270 4.3 13.0 0.00 0.05 0.00 91 1009.7
20260509102015 71 293 1.7 6.1 0.00 0.05 0.00 92 1009.7
20260509101016 71 293 6.1 10.4 0.00 0.05 0.00 92 1009.6
20260509100015 71 293 2.6 8.7 0.00 0.05 0.00 93 1008.9
20260509095035 71 158 4.3 10.4 0.00 0.05 0.00 93 1007.7
20260509094035 71 135 8.7 16.5 0.00 0.05 0.00 93 1007.1
20260509093016 71 135 9.6 16.5 0.00 0.05 0.00 93 1006.8
20260509092016 71 135 10.4 20.0 0.00 0.05 0.00 93 1006.4
20260509091015 70 135 10.4 17.4 0.00 0.05 0.00 93 1006.8
20260509090015 70 135 7.8 15.6 0.00 0.05 0.00 94 1007.3
20260509085036 70 135 8.7 14.8 0.00 0.05 0.05 94 1007.5
20260509084017 70 135 7.0 13.0 0.00 0.05 0.05 94 1007.8
20260509083016 69 135 7.0 11.3 0.00 0.05 0.05 94 1008.1
20260509082016 69 135 6.1 8.7 0.00 0.05 0.05 95 1008.6
20260509081016 69 135 5.2 8.7 0.00 0.05 0.05 94 1008.8
20260509080016 68 135 6.1 8.7 0.00 0.05 0.05 94 1009.3
20260509075016 68 135 6.1 10.4 0.00 0.05 0.05 94 1009.6
20260509074016 68 158 2.6 6.1 0.00 0.05 0.05 94 1010.4
20260509073016 69 0.0 0.0 0.00 0.05 0.05 94 1011.0
20260509072016 69 0.0 0.9 0.00 0.05 0.05 94 1011.4
20260509071016 69 0.0 0.0 0.00 0.05 0.05 94 1012.4
20260509070017 69 0.0 2.6 0.00 0.05 0.05 94 1012.3
20260509065016 69 0.0 0.0 0.00 0.05 0.05 94 1012.1
20260509064017 69 0.0 1.7 0.00 0.05 0.05 94 1012.2
20260509063016 69 293 1.7 5.2 0.00 0.05 0.05 94 1012.1
20260509062017 69 0.0 2.6 0.00 0.05 0.05 93 1011.6
20260509061016 69 293 2.6 5.2 0.00 0.05 0.05 93 1011.8
20260509060017 68 293 0.9 6.1 0.00 0.05 0.05 93 1011.5
20260509055016 69 270 1.7 3.5 0.00 0.05 0.05 93 1011.2
20260509054016 69 0.0 0.0 0.00 0.05 0.05 92 1010.7
20260509053036 69 0.0 0.0 0.00 0.05 0.05 92 1010.5
20260509052016 69 0.0 0.0 0.00 0.05 0.05 92 1010.6
20260509051016 69 0.0 0.0 0.00 0.05 0.05 92 1010.4
20260509050016 69 0.0 0.0 0.00 0.05 0.05 91 1010.4
20260509045016 69 0.0 0.0 0.00 0.05 0.05 91 1010.8
20260509044016 70 0.0 0.0 0.00 0.05 0.05 91 1010.7